Current Version              Previous Version:    01  02  03  04  05  06  07  08  09  10  11  12  13  14  15  16  17  18  19  20  21  22  23  24  25  26  27  28  29  30  
   31  32  33  34  35  36  37  38  39  40  41  42  43  44  45  46  47  48  49  50  51  52  53  54  55  56  57  58  59  60  

[Printable]
545
ASUS44 KLUB 290401
RWRTX
WEST TEXAS WEATHER ROUNDUP
NATIONAL WEATHER SERVICE LUBBOCK TX
1000 PM CST WED JAN 28 2015

NOTE: "FAIR" INDICATES FEW OR NO CLOUDS BELOW 12,000 FEET WITH NO
SIGNIFICANT WEATHER AND/OR OBSTRUCTIONS TO VISIBILITY.

TXZ004-006>008-010-012-014-016-OKZ002-290500-
TEXAS PANHANDLE/OKLAHOMA PANHANDLE

CITY           SKY/WX    TMP DP  RH WIND       PRES   REMARKS
AMARILLO       MOCLDY    53  32  44 E3        30.13R
BORGER         PTCLDY    53  33  46 W5        30.13R
CANADIAN       MOCLDY    41  34  76 CALM      30.10R
DALHART        PTCLDY    46  35  65 N12       30.17R
DUMAS          MOCLDY    42  35  76 N8        30.15R
GUYMON         PTCLDY    51  31  46 NW8       30.15R
PERRYTON         N/A     46  30  53 NW8       30.12R
$$

TXZ026-029-035-045-048-290500-
SOUTHERN PANHANDLE/SOUTH PLAINS/ROLLING PLAINS

CITY           SKY/WX    TMP DP  RH WIND       PRES   REMARKS
CHILDRESS      CLEAR     56  34  43 NW3       30.07R
SEMINOLE       PTCLDY    52  38  58 W8        30.13R
LUBBOCK        MOCLDY    49  34  56 W6        30.11R
$$

TXZ052-054-060>062-072-078-127-140-154-169-290500-
PERMIAN BASIN/CONCHO VALLEY/BIG COUNTRY/EDWARDS PLATEAU

CITY           SKY/WX    TMP DP  RH WIND       PRES   REMARKS
ABILENE        CLEAR     65  44  46 SW10      30.05R
BRADY          CLEAR     63  37  39 S6        30.10R
BROWNWOOD      CLEAR     61  37  41 S8        30.08R
JUNCTION       PTCLDY    53  40  61 CALM      30.12R
MIDLAND        PTCLDY    56  45  66 SW3       30.12R
ODESSA         PTCLDY    59  43  55 SW3       30.13R
SAN ANGELO     PTCLDY    60  42  51 S10       30.09R
WINK           PTCLDY    57  40  52 CALM      30.10R
$$

TXZ055-058-074-075-080-082-290500-
FAR WEST/SOUTHWEST MOUNTAINS/TRANS PECOS

CITY           SKY/WX    TMP DP  RH WIND       PRES   REMARKS
DRYDEN           N/A     61  40  45 NE7       30.09R
EL PASO        PTCLDY    61  37  41 CALM      30.15S
FORT STOCKTON  MOCLDY    61  48  62 S10       30.12R
GUADALUPE PASS MOCLDY    59  33  37 W17       30.22S
MARFA          CLEAR     46  39  76 CALM      30.23S
PECOS          PTCLDY    57  44  62 CALM      30.11R
$$

TXZ014-016-019-021>030-083-290500
TEXAS TECH WEST TEXAS MESONET/TEXAS PANHANDLE/NORTHERN SOUTH PLAINS

CITY           SKY/WX    TMP DP  RH WIND       PRES   REMARKS
ABERNATHY 5ENE   N/A     46  35  64 W3        30.12R
AMARILLO 9NNE    N/A     41  34  76 CALM      30.12R
AMARILLO 7SSE    N/A     46  34  62 E3        30.13R
AMHERST 1NE      N/A     47  34  60 SW8       30.13R
CANADIAN 6E      N/A     50  32  49 W6        30.07R
CAPROCK CYN SP   N/A     53  35  50 NW2       30.09R
CLARENDON 2WSW   N/A     47  34  59 N7        30.09R
CLAUDE 12SW      N/A     51  32  48 NE10      30.11R
DIMMITT 2NE      N/A     49  33  52 E2        30.14R
FLOYDADA 2NNE    N/A     42  33  71 N6        30.11R
FRIONA 2NE       N/A     45  35  66 S1        30.15R
GOODLETT 3W      N/A     56  33  41 NW9       30.03R
HART 3N          N/A     45  33  61 CALM      30.13R
HEREFORD 2NW     N/A     44  33  64 SE1       30.13R
MCLEAN 1E        N/A     52  33  48 W6        30.08R
MEMPHIS 1NE      N/A     53  34  48 N5        30.06R
MULESHOE 2SSW    N/A     39  33  80 SW5       30.14R
OLTON 6S         N/A     49  33  53 NW6       30.13R
PALO DURO SP     N/A     57  32  38 E1        30.13R
PAMPA 2E         N/A     44  35  70 N3        30.12R
PLAINVIEW 1S     N/A     44  35  72 SW2       30.12R
SILVERTON 7ESE   N/A     50  33  51 N5        30.11R
TULIA 2ENE       N/A     46  34  62 NW1       30.12R
TURKEY 2WSW      N/A     56  34  44 NW8       30.07R
UMBARGER 3NNE    N/A     45  35  67 SE1       30.13R
$$

TXZ033>036-039>041-045>048-290500
TEXAS TECH WEST TEXAS MESONET/SOUTH PLAINS

CITY           SKY/WX    TMP DP  RH WIND       PRES   REMARKS
AIKEN 3WSW       N/A     44  34  68 NW1       30.13R
ANDREWS 2NE      N/A     56  42  57 SW7       30.13R
ANTON 6SSW       N/A     42  33  69 W7        30.12R
DENVR CTY 7WNW   N/A     47  35  62 W9        30.13R
GAIL 2ESE        N/A     57  38  49 SW8       30.08R
LAMESA 2SE       N/A     47  38  72 SW5       30.11S
LEVELLAND 4S     N/A     47  34  60 W5        30.13R
LUBBOCK 3WNW     N/A     48  34  57 W2        30.12R
MORTON 1ENE      N/A     44  33  67 W6        30.14R
ODONNELL 1N      N/A     49  34  56 NW6       30.11R
PLAINS 3N        N/A     44  35  70 NW3       30.14R
RALLS 1SE        N/A     52  34  49 NW6       30.12R
REESE CENTER     N/A     46  34  63 W8        30.12R
SEAGRAVES 1SW    N/A     47  36  65 NW5       30.13R
SEMINOLE 2NNE    N/A     51  38  59 W6        30.12R
SLATON 2NE       N/A     49  33  53 W7        30.11R
SNYDER 3E        N/A     61  41  49 NW2       30.08R
SUNDOWN 8SW      N/A     46  35  66 W8        30.13R
TAHOKA 3NNE      N/A     50  34  55 NW8       30.10S
WOLFFORTH 6SSW   N/A     46  35  66 NW9       30.12R
$$

TXZ031-032-036>038-042>044-290500-
TEXAS TECH WEST TEXAS MESONET/ROLLING PLAINS

CITY           SKY/WX    TMP DP  RH WIND       PRES   REMARKS
ASPERMONT 3NE    N/A     54  42  64 NW7       30.05R
FLUVANNA 3WNW    N/A     58  37  46 S2        30.09R
GRAHAM 5SSW      N/A     59  35  39 NW8       30.09R
GUTHRIE 10WSW    N/A     58  34  40 NW3       30.05R
HASKELL 1NW      N/A     56  45  65 SW7       30.03R
JAYTON 1SSE      N/A     57  36  46 W5        30.06R
KNOX CITY 3NW    N/A     53  42  64 W5        30.04R
LK A HENRY 1NW   N/A     55  38  52 W7        30.07R
NORTHFIELD 1S    N/A     52  36  53 W7        30.07R
ODELL 4ENE       N/A     58  35  41 NW9       30.03R
PADUCAH 10SW     N/A     57  35  43 W8        30.06R
POST 1NE         N/A     59  36  42 W9        30.08R
RRING SPRGS 3N   N/A     58  34  40 NW8       30.08R
SEYMOUR 3NW      N/A     55  45  67 NW12      30.01R
SPUR 1W          N/A     51  35  55 NW6       30.07R
WEINERT 2NNE     N/A     57  45  64 W6        30.04R
WHITE RVR 6NE    N/A     56  34  43 NW10      30.08R
$$

TXZ052-054-060>062-072-078-127-140-154-169-290500-
TEXAS TECH WEST TEXAS MESONET/PERMIAN BASIN/
CONCHO VALLEY/BIG COUNTRY/EDWARDS PLATEAU

CITY           SKY/WX    TMP DP  RH WIND       PRES   REMARKS
COYANOSA 2N      N/A     56  48  73 N2        30.11R
JUNCTION 1SSW    N/A     51  40  64 CALM      30.13R
MERTZON 3NNE     N/A     60  41  48 S8        30.13R
SAN ANGELO 7NW   N/A     62  40  45 SW2       30.10R
STRLNG CT 4WSW   N/A     65  42  43 S14       30.11R
ST LAWRNCE 5SW   N/A     55  45  68 S8        30.12R
SWEETWATR 11SW   N/A     59  46  60 S6        30.10R
WALL 1E          N/A     64  39  40 S12       30.10R
$$

TXZ055-058-074-075-080-082-290500-
TEXAS TECH WEST TEXAS MESONET/FAR WEST/SOUTHWEST MOUNTAINS/TRANS PECOS

CITY           SKY/WX    TMP DP  RH WIND       PRES   REMARKS
PRSMN GAP BBNP   N/A     65  44  46 NE8       30.12R
$$